Index of /20260429/WXO-DD/model_caps/3km/12/041
Name Last modified Size Description
Parent Directory -
20260429T12Z_MSC_CAPS_AbsoluteVorticity_IsbL-0250_RLatLon0.03_PT041H.grib2 2026-04-29 18:20 1.2M
20260429T12Z_MSC_CAPS_AbsoluteVorticity_IsbL-0500_RLatLon0.03_PT041H.grib2 2026-04-29 18:20 1.1M
20260429T12Z_MSC_CAPS_AbsoluteVorticity_IsbL-0700_RLatLon0.03_PT041H.grib2 2026-04-29 18:20 1.0M
20260429T12Z_MSC_CAPS_AbsoluteVorticity_IsbL-0850_RLatLon0.03_PT041H.grib2 2026-04-29 18:20 1.2M
20260429T12Z_MSC_CAPS_AbsoluteVorticity_IsbL-1000_RLatLon0.03_PT041H.grib2 2026-04-29 18:20 1.3M
20260429T12Z_MSC_CAPS_AirDensity_AGL-120m_RLatLon0.03_PT041H.grib2 2026-04-29 18:20 1.4M
20260429T12Z_MSC_CAPS_AirDensity_AGL-40m_RLatLon0.03_PT041H.grib2 2026-04-29 18:20 1.4M
20260429T12Z_MSC_CAPS_AirDensity_AGL-80m_RLatLon0.03_PT041H.grib2 2026-04-29 18:20 1.4M
20260429T12Z_MSC_CAPS_AirTemp_AGL-120m_RLatLon0.03_PT041H.grib2 2026-04-29 18:20 1.8M
20260429T12Z_MSC_CAPS_AirTemp_AGL-2m_RLatLon0.03_PT041H.grib2 2026-04-29 18:20 1.8M
20260429T12Z_MSC_CAPS_AirTemp_AGL-40m_RLatLon0.03_PT041H.grib2 2026-04-29 18:20 1.5M
20260429T12Z_MSC_CAPS_AirTemp_AGL-80m_RLatLon0.03_PT041H.grib2 2026-04-29 18:20 1.8M
20260429T12Z_MSC_CAPS_AirTemp_IsbL-0050_RLatLon0.03_PT041H.grib2 2026-04-29 18:20 687K
20260429T12Z_MSC_CAPS_AirTemp_IsbL-0100_RLatLon0.03_PT041H.grib2 2026-04-29 18:20 790K
20260429T12Z_MSC_CAPS_AirTemp_IsbL-0150_RLatLon0.03_PT041H.grib2 2026-04-29 18:20 1.0M
20260429T12Z_MSC_CAPS_AirTemp_IsbL-0175_RLatLon0.03_PT041H.grib2 2026-04-29 18:20 772K
20260429T12Z_MSC_CAPS_AirTemp_IsbL-0200_RLatLon0.03_PT041H.grib2 2026-04-29 18:20 789K
20260429T12Z_MSC_CAPS_AirTemp_IsbL-0225_RLatLon0.03_PT041H.grib2 2026-04-29 18:20 790K
20260429T12Z_MSC_CAPS_AirTemp_IsbL-0250_RLatLon0.03_PT041H.grib2 2026-04-29 18:20 777K
20260429T12Z_MSC_CAPS_AirTemp_IsbL-0275_RLatLon0.03_PT041H.grib2 2026-04-29 18:20 1.0M
20260429T12Z_MSC_CAPS_AirTemp_IsbL-0300_RLatLon0.03_PT041H.grib2 2026-04-29 18:20 848K
20260429T12Z_MSC_CAPS_AirTemp_IsbL-0350_RLatLon0.03_PT041H.grib2 2026-04-29 18:20 1.0M
20260429T12Z_MSC_CAPS_AirTemp_IsbL-0400_RLatLon0.03_PT041H.grib2 2026-04-29 18:20 1.0M
20260429T12Z_MSC_CAPS_AirTemp_IsbL-0450_RLatLon0.03_PT041H.grib2 2026-04-29 18:20 764K
20260429T12Z_MSC_CAPS_AirTemp_IsbL-0500_RLatLon0.03_PT041H.grib2 2026-04-29 18:20 783K
20260429T12Z_MSC_CAPS_AirTemp_IsbL-0550_RLatLon0.03_PT041H.grib2 2026-04-29 18:20 799K
20260429T12Z_MSC_CAPS_AirTemp_IsbL-0600_RLatLon0.03_PT041H.grib2 2026-04-29 18:20 972K
20260429T12Z_MSC_CAPS_AirTemp_IsbL-0650_RLatLon0.03_PT041H.grib2 2026-04-29 18:20 1.0M
20260429T12Z_MSC_CAPS_AirTemp_IsbL-0700_RLatLon0.03_PT041H.grib2 2026-04-29 18:20 1.0M
20260429T12Z_MSC_CAPS_AirTemp_IsbL-0750_RLatLon0.03_PT041H.grib2 2026-04-29 18:20 1.0M
20260429T12Z_MSC_CAPS_AirTemp_IsbL-0800_RLatLon0.03_PT041H.grib2 2026-04-29 18:20 1.0M
20260429T12Z_MSC_CAPS_AirTemp_IsbL-0850_RLatLon0.03_PT041H.grib2 2026-04-29 18:20 1.0M
20260429T12Z_MSC_CAPS_AirTemp_IsbL-0875_RLatLon0.03_PT041H.grib2 2026-04-29 18:20 1.0M
20260429T12Z_MSC_CAPS_AirTemp_IsbL-0900_RLatLon0.03_PT041H.grib2 2026-04-29 18:20 1.0M
20260429T12Z_MSC_CAPS_AirTemp_IsbL-0925_RLatLon0.03_PT041H.grib2 2026-04-29 18:20 1.0M
20260429T12Z_MSC_CAPS_AirTemp_IsbL-0950_RLatLon0.03_PT041H.grib2 2026-04-29 18:20 1.1M
20260429T12Z_MSC_CAPS_AirTemp_IsbL-0970_RLatLon0.03_PT041H.grib2 2026-04-29 18:20 1.1M
20260429T12Z_MSC_CAPS_AirTemp_IsbL-0985_RLatLon0.03_PT041H.grib2 2026-04-29 18:20 1.1M
20260429T12Z_MSC_CAPS_AirTemp_IsbL-1000_RLatLon0.03_PT041H.grib2 2026-04-29 18:20 1.1M
20260429T12Z_MSC_CAPS_AirTemp_IsbL-1015_RLatLon0.03_PT041H.grib2 2026-04-29 18:20 1.2M
20260429T12Z_MSC_CAPS_Albedo_Sfc_RLatLon0.03_PT041H.grib2 2026-04-29 18:20 2.7M
20260429T12Z_MSC_CAPS_CAPE_Sfc_RLatLon0.03_PT041H.grib2 2026-04-29 18:20 58K
20260429T12Z_MSC_CAPS_CloudWater_EAtm_RLatLon0.03_PT041H.grib2 2026-04-29 18:20 1.5M
20260429T12Z_MSC_CAPS_ConvectivePrecip-Accum_Sfc_RLatLon0.03_PT041H.grib2 2026-04-29 18:20 4.9M
20260429T12Z_MSC_CAPS_DewPointDepression_AGL-120m_RLatLon0.03_PT041H.grib2 2026-04-29 18:20 2.1M
20260429T12Z_MSC_CAPS_DewPointDepression_AGL-2m_RLatLon0.03_PT041H.grib2 2026-04-29 18:20 2.1M
20260429T12Z_MSC_CAPS_DewPointDepression_AGL-40m_RLatLon0.03_PT041H.grib2 2026-04-29 18:20 2.1M
20260429T12Z_MSC_CAPS_DewPointDepression_AGL-80m_RLatLon0.03_PT041H.grib2 2026-04-29 18:20 2.1M
20260429T12Z_MSC_CAPS_DewPointDepression_IsbL-0050_RLatLon0.03_PT041H.grib2 2026-04-29 18:20 193
20260429T12Z_MSC_CAPS_DewPointDepression_IsbL-0100_RLatLon0.03_PT041H.grib2 2026-04-29 18:20 167K
20260429T12Z_MSC_CAPS_DewPointDepression_IsbL-0150_RLatLon0.03_PT041H.grib2 2026-04-29 18:20 146K
20260429T12Z_MSC_CAPS_DewPointDepression_IsbL-0175_RLatLon0.03_PT041H.grib2 2026-04-29 18:20 261K
20260429T12Z_MSC_CAPS_DewPointDepression_IsbL-0200_RLatLon0.03_PT041H.grib2 2026-04-29 18:20 470K
20260429T12Z_MSC_CAPS_DewPointDepression_IsbL-0225_RLatLon0.03_PT041H.grib2 2026-04-29 18:20 722K
20260429T12Z_MSC_CAPS_DewPointDepression_IsbL-0250_RLatLon0.03_PT041H.grib2 2026-04-29 18:20 925K
20260429T12Z_MSC_CAPS_DewPointDepression_IsbL-0275_RLatLon0.03_PT041H.grib2 2026-04-29 18:20 1.0M
20260429T12Z_MSC_CAPS_DewPointDepression_IsbL-0300_RLatLon0.03_PT041H.grib2 2026-04-29 18:20 1.1M
20260429T12Z_MSC_CAPS_DewPointDepression_IsbL-0350_RLatLon0.03_PT041H.grib2 2026-04-29 18:20 1.1M
20260429T12Z_MSC_CAPS_DewPointDepression_IsbL-0400_RLatLon0.03_PT041H.grib2 2026-04-29 18:20 1.1M
20260429T12Z_MSC_CAPS_DewPointDepression_IsbL-0450_RLatLon0.03_PT041H.grib2 2026-04-29 18:20 1.2M
20260429T12Z_MSC_CAPS_DewPointDepression_IsbL-0500_RLatLon0.03_PT041H.grib2 2026-04-29 18:20 1.2M
20260429T12Z_MSC_CAPS_DewPointDepression_IsbL-0550_RLatLon0.03_PT041H.grib2 2026-04-29 18:20 1.2M
20260429T12Z_MSC_CAPS_DewPointDepression_IsbL-0600_RLatLon0.03_PT041H.grib2 2026-04-29 18:20 1.3M
20260429T12Z_MSC_CAPS_DewPointDepression_IsbL-0650_RLatLon0.03_PT041H.grib2 2026-04-29 18:20 1.3M
20260429T12Z_MSC_CAPS_DewPointDepression_IsbL-0700_RLatLon0.03_PT041H.grib2 2026-04-29 18:20 1.3M
20260429T12Z_MSC_CAPS_DewPointDepression_IsbL-0750_RLatLon0.03_PT041H.grib2 2026-04-29 18:20 1.3M
20260429T12Z_MSC_CAPS_DewPointDepression_IsbL-0800_RLatLon0.03_PT041H.grib2 2026-04-29 18:20 1.3M
20260429T12Z_MSC_CAPS_DewPointDepression_IsbL-0850_RLatLon0.03_PT041H.grib2 2026-04-29 18:20 1.3M
20260429T12Z_MSC_CAPS_DewPointDepression_IsbL-0875_RLatLon0.03_PT041H.grib2 2026-04-29 18:20 1.4M
20260429T12Z_MSC_CAPS_DewPointDepression_IsbL-0900_RLatLon0.03_PT041H.grib2 2026-04-29 18:20 1.4M
20260429T12Z_MSC_CAPS_DewPointDepression_IsbL-0925_RLatLon0.03_PT041H.grib2 2026-04-29 18:20 1.4M
20260429T12Z_MSC_CAPS_DewPointDepression_IsbL-0950_RLatLon0.03_PT041H.grib2 2026-04-29 18:20 1.4M
20260429T12Z_MSC_CAPS_DewPointDepression_IsbL-0970_RLatLon0.03_PT041H.grib2 2026-04-29 18:20 1.4M
20260429T12Z_MSC_CAPS_DewPointDepression_IsbL-0985_RLatLon0.03_PT041H.grib2 2026-04-29 18:20 1.4M
20260429T12Z_MSC_CAPS_DewPointDepression_IsbL-1000_RLatLon0.03_PT041H.grib2 2026-04-29 18:20 1.4M
20260429T12Z_MSC_CAPS_DewPointDepression_IsbL-1015_RLatLon0.03_PT041H.grib2 2026-04-29 18:20 1.3M
20260429T12Z_MSC_CAPS_DewPoint_AGL-120m_RLatLon0.03_PT041H.grib2 2026-04-29 18:20 3.6M
20260429T12Z_MSC_CAPS_DewPoint_AGL-2m_RLatLon0.03_PT041H.grib2 2026-04-29 18:20 1.8M
20260429T12Z_MSC_CAPS_DewPoint_AGL-40m_RLatLon0.03_PT041H.grib2 2026-04-29 18:20 3.7M
20260429T12Z_MSC_CAPS_DewPoint_AGL-80m_RLatLon0.03_PT041H.grib2 2026-04-29 18:20 3.7M
20260429T12Z_MSC_CAPS_DownwardLongwaveRadiationFlux-Accum_Sfc_RLatLon0.03_PT041H.grib2 2026-04-29 18:20 2.1M
20260429T12Z_MSC_CAPS_DownwardShortwaveRadiationFlux-Accum_NTAtm_RLatLon0.03_PT041H.grib2 2026-04-29 18:20 511K
20260429T12Z_MSC_CAPS_DownwardShortwaveRadiationFlux-Accum_Sfc_RLatLon0.03_PT041H.grib2 2026-04-29 18:20 2.9M
20260429T12Z_MSC_CAPS_FreezingRain-Accum_Sfc_RLatLon0.03_PT041H.grib2 2026-04-29 18:20 1.0M
20260429T12Z_MSC_CAPS_GeopotentialHeight_IsbL-0050_RLatLon0.03_PT041H.grib2 2026-04-29 18:20 637K
20260429T12Z_MSC_CAPS_GeopotentialHeight_IsbL-0100_RLatLon0.03_PT041H.grib2 2026-04-29 18:20 758K
20260429T12Z_MSC_CAPS_GeopotentialHeight_IsbL-0150_RLatLon0.03_PT041H.grib2 2026-04-29 18:20 609K
20260429T12Z_MSC_CAPS_GeopotentialHeight_IsbL-0175_RLatLon0.03_PT041H.grib2 2026-04-29 18:20 618K
20260429T12Z_MSC_CAPS_GeopotentialHeight_IsbL-0200_RLatLon0.03_PT041H.grib2 2026-04-29 18:20 741K
20260429T12Z_MSC_CAPS_GeopotentialHeight_IsbL-0225_RLatLon0.03_PT041H.grib2 2026-04-29 18:20 755K
20260429T12Z_MSC_CAPS_GeopotentialHeight_IsbL-0250_RLatLon0.03_PT041H.grib2 2026-04-29 18:20 764K
20260429T12Z_MSC_CAPS_GeopotentialHeight_IsbL-0275_RLatLon0.03_PT041H.grib2 2026-04-29 18:20 773K
20260429T12Z_MSC_CAPS_GeopotentialHeight_IsbL-0300_RLatLon0.03_PT041H.grib2 2026-04-29 18:20 778K
20260429T12Z_MSC_CAPS_GeopotentialHeight_IsbL-0350_RLatLon0.03_PT041H.grib2 2026-04-29 18:20 780K
20260429T12Z_MSC_CAPS_GeopotentialHeight_IsbL-0400_RLatLon0.03_PT041H.grib2 2026-04-29 18:20 776K
20260429T12Z_MSC_CAPS_GeopotentialHeight_IsbL-0450_RLatLon0.03_PT041H.grib2 2026-04-29 18:20 773K
20260429T12Z_MSC_CAPS_GeopotentialHeight_IsbL-0500_RLatLon0.03_PT041H.grib2 2026-04-29 18:20 766K
20260429T12Z_MSC_CAPS_GeopotentialHeight_IsbL-0550_RLatLon0.03_PT041H.grib2 2026-04-29 18:20 755K
20260429T12Z_MSC_CAPS_GeopotentialHeight_IsbL-0600_RLatLon0.03_PT041H.grib2 2026-04-29 18:20 635K
20260429T12Z_MSC_CAPS_GeopotentialHeight_IsbL-0650_RLatLon0.03_PT041H.grib2 2026-04-29 18:20 634K
20260429T12Z_MSC_CAPS_GeopotentialHeight_IsbL-0700_RLatLon0.03_PT041H.grib2 2026-04-29 18:20 810K
20260429T12Z_MSC_CAPS_GeopotentialHeight_IsbL-0750_RLatLon0.03_PT041H.grib2 2026-04-29 18:20 812K
20260429T12Z_MSC_CAPS_GeopotentialHeight_IsbL-0800_RLatLon0.03_PT041H.grib2 2026-04-29 18:20 814K
20260429T12Z_MSC_CAPS_GeopotentialHeight_IsbL-0850_RLatLon0.03_PT041H.grib2 2026-04-29 18:20 894K
20260429T12Z_MSC_CAPS_GeopotentialHeight_IsbL-0875_RLatLon0.03_PT041H.grib2 2026-04-29 18:20 898K
20260429T12Z_MSC_CAPS_GeopotentialHeight_IsbL-0900_RLatLon0.03_PT041H.grib2 2026-04-29 18:20 903K
20260429T12Z_MSC_CAPS_GeopotentialHeight_IsbL-0925_RLatLon0.03_PT041H.grib2 2026-04-29 18:20 830K
20260429T12Z_MSC_CAPS_GeopotentialHeight_IsbL-0950_RLatLon0.03_PT041H.grib2 2026-04-29 18:20 832K
20260429T12Z_MSC_CAPS_GeopotentialHeight_IsbL-0970_RLatLon0.03_PT041H.grib2 2026-04-29 18:20 851K
20260429T12Z_MSC_CAPS_GeopotentialHeight_IsbL-0985_RLatLon0.03_PT041H.grib2 2026-04-29 18:20 859K
20260429T12Z_MSC_CAPS_GeopotentialHeight_IsbL-1000_RLatLon0.03_PT041H.grib2 2026-04-29 18:20 870K
20260429T12Z_MSC_CAPS_GeopotentialHeight_IsbL-1015_RLatLon0.03_PT041H.grib2 2026-04-29 18:20 882K
20260429T12Z_MSC_CAPS_GeopotentialHeight_Sfc_RLatLon0.03_PT041H.grib2 2026-04-29 18:20 1.0M
20260429T12Z_MSC_CAPS_IcePellets-Accum_Sfc_RLatLon0.03_PT041H.grib2 2026-04-29 18:20 45K
20260429T12Z_MSC_CAPS_LatentHeatNetFlux_Sfc_RLatLon0.03_PT041H.grib2 2026-04-29 18:20 1.7M
20260429T12Z_MSC_CAPS_LiftedIndex-MU-VT_IsbL-0500_RLatLon0.03_PT041H.grib2 2026-04-29 18:20 3.3M
20260429T12Z_MSC_CAPS_MixedLayerThickness_Sfc_RLatLon0.03_PT041H.nc 2026-04-29 18:12 17M
20260429T12Z_MSC_CAPS_NetLongwaveRadiationFlux-Accum_Sfc_RLatLon0.03_PT041H.grib2 2026-04-29 18:20 2.8M
20260429T12Z_MSC_CAPS_NetShortwaveRadiationFlux-Accum_Sfc_RLatLon0.03_PT041H.grib2 2026-04-29 18:20 2.8M
20260429T12Z_MSC_CAPS_PlanetaryBoundaryLayerHeight_Sfc_RLatLon0.03_PT041H.grib2 2026-04-29 18:20 2.8M
20260429T12Z_MSC_CAPS_Precip-Accum_Sfc_RLatLon0.03_PT041H.grib2 2026-04-29 18:20 5.1M
20260429T12Z_MSC_CAPS_PrecipRate_Sfc_RLatLon0.03_PT041H.grib2 2026-04-29 18:20 395K
20260429T12Z_MSC_CAPS_PrecipType-Instant_Sfc_RLatLon0.03_PT041H.grib2 2026-04-29 18:20 2.1M
20260429T12Z_MSC_CAPS_Pressure_MSL_RLatLon0.03_PT041H.grib2 2026-04-29 18:20 910K
20260429T12Z_MSC_CAPS_Pressure_Sfc_RLatLon0.03_PT041H.grib2 2026-04-29 18:20 1.2M
20260429T12Z_MSC_CAPS_RadiativeTemp_Sfc_RLatLon0.03_PT041H.grib2 2026-04-29 18:20 2.1M
20260429T12Z_MSC_CAPS_Rain-Accum_Sfc_RLatLon0.03_PT041H.grib2 2026-04-29 18:20 2.3M
20260429T12Z_MSC_CAPS_RelativeHumidity_AGL-120m_RLatLon0.03_PT041H.grib2 2026-04-29 18:20 2.8M
20260429T12Z_MSC_CAPS_RelativeHumidity_AGL-2m_RLatLon0.03_PT041H.grib2 2026-04-29 18:20 2.9M
20260429T12Z_MSC_CAPS_RelativeHumidity_AGL-40m_RLatLon0.03_PT041H.grib2 2026-04-29 18:20 2.9M
20260429T12Z_MSC_CAPS_RelativeHumidity_AGL-80m_RLatLon0.03_PT041H.grib2 2026-04-29 18:20 2.8M
20260429T12Z_MSC_CAPS_RelativeHumidity_IsbL-0050_RLatLon0.03_PT041H.grib2 2026-04-29 18:20 1.0M
20260429T12Z_MSC_CAPS_RelativeHumidity_IsbL-0100_RLatLon0.03_PT041H.grib2 2026-04-29 18:20 841K
20260429T12Z_MSC_CAPS_RelativeHumidity_IsbL-0150_RLatLon0.03_PT041H.grib2 2026-04-29 18:20 895K
20260429T12Z_MSC_CAPS_RelativeHumidity_IsbL-0175_RLatLon0.03_PT041H.grib2 2026-04-29 18:20 635K
20260429T12Z_MSC_CAPS_RelativeHumidity_IsbL-0200_RLatLon0.03_PT041H.grib2 2026-04-29 18:20 703K
20260429T12Z_MSC_CAPS_RelativeHumidity_IsbL-0225_RLatLon0.03_PT041H.grib2 2026-04-29 18:20 945K
20260429T12Z_MSC_CAPS_RelativeHumidity_IsbL-0250_RLatLon0.03_PT041H.grib2 2026-04-29 18:20 1.1M
20260429T12Z_MSC_CAPS_RelativeHumidity_IsbL-0275_RLatLon0.03_PT041H.grib2 2026-04-29 18:20 1.4M
20260429T12Z_MSC_CAPS_RelativeHumidity_IsbL-0300_RLatLon0.03_PT041H.grib2 2026-04-29 18:20 1.6M
20260429T12Z_MSC_CAPS_RelativeHumidity_IsbL-0350_RLatLon0.03_PT041H.grib2 2026-04-29 18:20 1.8M
20260429T12Z_MSC_CAPS_RelativeHumidity_IsbL-0400_RLatLon0.03_PT041H.grib2 2026-04-29 18:20 1.9M
20260429T12Z_MSC_CAPS_RelativeHumidity_IsbL-0450_RLatLon0.03_PT041H.grib2 2026-04-29 18:20 2.0M
20260429T12Z_MSC_CAPS_RelativeHumidity_IsbL-0500_RLatLon0.03_PT041H.grib2 2026-04-29 18:20 2.0M
20260429T12Z_MSC_CAPS_RelativeHumidity_IsbL-0550_RLatLon0.03_PT041H.grib2 2026-04-29 18:20 2.2M
20260429T12Z_MSC_CAPS_RelativeHumidity_IsbL-0600_RLatLon0.03_PT041H.grib2 2026-04-29 18:20 2.2M
20260429T12Z_MSC_CAPS_RelativeHumidity_IsbL-0650_RLatLon0.03_PT041H.grib2 2026-04-29 18:20 2.3M
20260429T12Z_MSC_CAPS_RelativeHumidity_IsbL-0700_RLatLon0.03_PT041H.grib2 2026-04-29 18:20 2.4M
20260429T12Z_MSC_CAPS_RelativeHumidity_IsbL-0750_RLatLon0.03_PT041H.grib2 2026-04-29 18:20 2.4M
20260429T12Z_MSC_CAPS_RelativeHumidity_IsbL-0800_RLatLon0.03_PT041H.grib2 2026-04-29 18:20 2.4M
20260429T12Z_MSC_CAPS_RelativeHumidity_IsbL-0850_RLatLon0.03_PT041H.grib2 2026-04-29 18:20 2.5M
20260429T12Z_MSC_CAPS_RelativeHumidity_IsbL-0875_RLatLon0.03_PT041H.grib2 2026-04-29 18:20 2.5M
20260429T12Z_MSC_CAPS_RelativeHumidity_IsbL-0900_RLatLon0.03_PT041H.grib2 2026-04-29 18:20 2.5M
20260429T12Z_MSC_CAPS_RelativeHumidity_IsbL-0925_RLatLon0.03_PT041H.grib2 2026-04-29 18:20 2.6M
20260429T12Z_MSC_CAPS_RelativeHumidity_IsbL-0950_RLatLon0.03_PT041H.grib2 2026-04-29 18:20 2.8M
20260429T12Z_MSC_CAPS_RelativeHumidity_IsbL-0970_RLatLon0.03_PT041H.grib2 2026-04-29 18:20 2.8M
20260429T12Z_MSC_CAPS_RelativeHumidity_IsbL-0985_RLatLon0.03_PT041H.grib2 2026-04-29 18:20 2.9M
20260429T12Z_MSC_CAPS_RelativeHumidity_IsbL-1000_RLatLon0.03_PT041H.grib2 2026-04-29 18:20 2.9M
20260429T12Z_MSC_CAPS_RelativeHumidity_IsbL-1015_RLatLon0.03_PT041H.grib2 2026-04-29 18:20 2.9M
20260429T12Z_MSC_CAPS_Runoff-Accum_Sfc_RLatLon0.03_PT041H.grib2 2026-04-29 18:20 352K
20260429T12Z_MSC_CAPS_SeaIceAreaFraction_Sfc_RLatLon0.03_PT041H.nc 2026-04-29 18:12 15M
20260429T12Z_MSC_CAPS_SeaIceCompressiveStrength_Sfc_RLatLon0.03_PT041H.nc 2026-04-29 18:12 15M
20260429T12Z_MSC_CAPS_SeaIceDivergence_Sfc_RLatLon0.03_PT041H.nc 2026-04-29 18:12 15M
20260429T12Z_MSC_CAPS_SeaIceInternalPressure_Sfc_RLatLon0.03_PT041H.nc 2026-04-29 18:12 15M
20260429T12Z_MSC_CAPS_SeaIceShear_Sfc_RLatLon0.03_PT041H.nc 2026-04-29 18:12 14M
20260429T12Z_MSC_CAPS_SeaIceSnowTemp_Sfc_RLatLon0.03_PT041H.nc 2026-04-29 18:12 15M
20260429T12Z_MSC_CAPS_SeaIceSnowVolume_Sfc_RLatLon0.03_PT041H.nc 2026-04-29 18:12 15M
20260429T12Z_MSC_CAPS_SeaIceVelocityX_Sfc_RLatLon0.03_PT041H.nc 2026-04-29 18:12 15M
20260429T12Z_MSC_CAPS_SeaIceVelocityY_Sfc_RLatLon0.03_PT041H.nc 2026-04-29 18:12 15M
20260429T12Z_MSC_CAPS_SeaIceVolume_Sfc_RLatLon0.03_PT041H.nc 2026-04-29 18:12 15M
20260429T12Z_MSC_CAPS_SeaSurfaceHeight_Sfc_RLatLon0.03_PT041H.nc 2026-04-29 18:12 16M
20260429T12Z_MSC_CAPS_SeaWaterSalinity_DBS-0.5m_RLatLon0.03_PT041H.nc 2026-04-29 18:12 16M
20260429T12Z_MSC_CAPS_SeaWaterSalinity_DBS-all_RLatLon0.03_PT041H.nc 2026-04-29 18:12 107M
20260429T12Z_MSC_CAPS_SeaWaterTemp_DBS-0.5m_RLatLon0.03_PT041H.nc 2026-04-29 18:12 14M
20260429T12Z_MSC_CAPS_SeaWaterTemp_DBS-all_RLatLon0.03_PT041H.nc 2026-04-29 18:12 87M
20260429T12Z_MSC_CAPS_SeaWaterVelocityX_DBS-0.5m_RLatLon0.03_PT041H.nc 2026-04-29 18:12 17M
20260429T12Z_MSC_CAPS_SeaWaterVelocityX_DBS-all_RLatLon0.03_PT041H.nc 2026-04-29 18:12 199M
20260429T12Z_MSC_CAPS_SeaWaterVelocityY_DBS-0.5m_RLatLon0.03_PT041H.nc 2026-04-29 18:12 17M
20260429T12Z_MSC_CAPS_SeaWaterVelocityY_DBS-all_RLatLon0.03_PT041H.nc 2026-04-29 18:12 208M
20260429T12Z_MSC_CAPS_SensibleHeatNetFlux_Sfc_RLatLon0.03_PT041H.grib2 2026-04-29 18:20 2.0M
20260429T12Z_MSC_CAPS_ShowalterIndex_IsbL-0500_RLatLon0.03_PT041H.grib2 2026-04-29 18:20 4.3M
20260429T12Z_MSC_CAPS_Snow-Accum_Sfc_RLatLon0.03_PT041H.grib2 2026-04-29 18:20 4.2M
20260429T12Z_MSC_CAPS_SnowDensity_Sfc_RLatLon0.03_PT041H.grib2 2026-04-29 18:20 1.3M
20260429T12Z_MSC_CAPS_SnowDepthWaterEquivalent_Sfc_RLatLon0.03_PT041H.grib2 2026-04-29 18:20 705K
20260429T12Z_MSC_CAPS_SnowDepth_Sfc_RLatLon0.03_PT041H.grib2 2026-04-29 18:20 1.2M
20260429T12Z_MSC_CAPS_SoilTemp_DBS-0to10cm_RLatLon0.03_PT041H.grib2 2026-04-29 18:20 1.7M
20260429T12Z_MSC_CAPS_SoilTemp_Sfc_RLatLon0.03_PT041H.grib2 2026-04-29 18:20 1.8M
20260429T12Z_MSC_CAPS_SoilVolumetricIceContent_Sfc_RLatLon0.03_PT041H.grib2 2026-04-29 18:20 1.5M
20260429T12Z_MSC_CAPS_SoilVolumetricWaterContent_DBS-0to10cm_RLatLon0.03_PT041H.grib2 2026-04-29 18:20 1.2M
20260429T12Z_MSC_CAPS_SoilVolumetricWaterContent_DBS-0to1cm_RLatLon0.03_PT041H.grib2 2026-04-29 18:20 1.7M
20260429T12Z_MSC_CAPS_SpecificHumidity_AGL-120m_RLatLon0.03_PT041H.grib2 2026-04-29 18:20 1.8M
20260429T12Z_MSC_CAPS_SpecificHumidity_AGL-2m_RLatLon0.03_PT041H.grib2 2026-04-29 18:20 2.1M
20260429T12Z_MSC_CAPS_SpecificHumidity_AGL-40m_RLatLon0.03_PT041H.grib2 2026-04-29 18:20 1.9M
20260429T12Z_MSC_CAPS_SpecificHumidity_AGL-80m_RLatLon0.03_PT041H.grib2 2026-04-29 18:20 1.8M
20260429T12Z_MSC_CAPS_SpecificHumidity_IsbL-0050_RLatLon0.03_PT041H.grib2 2026-04-29 18:20 916K
20260429T12Z_MSC_CAPS_SpecificHumidity_IsbL-0100_RLatLon0.03_PT041H.grib2 2026-04-29 18:20 1.0M
20260429T12Z_MSC_CAPS_SpecificHumidity_IsbL-0150_RLatLon0.03_PT041H.grib2 2026-04-29 18:20 906K
20260429T12Z_MSC_CAPS_SpecificHumidity_IsbL-0175_RLatLon0.03_PT041H.grib2 2026-04-29 18:20 884K
20260429T12Z_MSC_CAPS_SpecificHumidity_IsbL-0200_RLatLon0.03_PT041H.grib2 2026-04-29 18:20 913K
20260429T12Z_MSC_CAPS_SpecificHumidity_IsbL-0225_RLatLon0.03_PT041H.grib2 2026-04-29 18:20 1.2M
20260429T12Z_MSC_CAPS_SpecificHumidity_IsbL-0250_RLatLon0.03_PT041H.grib2 2026-04-29 18:20 1.0M
20260429T12Z_MSC_CAPS_SpecificHumidity_IsbL-0275_RLatLon0.03_PT041H.grib2 2026-04-29 18:20 1.3M
20260429T12Z_MSC_CAPS_SpecificHumidity_IsbL-0300_RLatLon0.03_PT041H.grib2 2026-04-29 18:20 1.3M
20260429T12Z_MSC_CAPS_SpecificHumidity_IsbL-0350_RLatLon0.03_PT041H.grib2 2026-04-29 18:20 1.3M
20260429T12Z_MSC_CAPS_SpecificHumidity_IsbL-0400_RLatLon0.03_PT041H.grib2 2026-04-29 18:20 1.2M
20260429T12Z_MSC_CAPS_SpecificHumidity_IsbL-0450_RLatLon0.03_PT041H.grib2 2026-04-29 18:20 1.1M
20260429T12Z_MSC_CAPS_SpecificHumidity_IsbL-0500_RLatLon0.03_PT041H.grib2 2026-04-29 18:20 1.3M
20260429T12Z_MSC_CAPS_SpecificHumidity_IsbL-0550_RLatLon0.03_PT041H.grib2 2026-04-29 18:20 1.3M
20260429T12Z_MSC_CAPS_SpecificHumidity_IsbL-0600_RLatLon0.03_PT041H.grib2 2026-04-29 18:20 1.4M
20260429T12Z_MSC_CAPS_SpecificHumidity_IsbL-0650_RLatLon0.03_PT041H.grib2 2026-04-29 18:20 1.6M
20260429T12Z_MSC_CAPS_SpecificHumidity_IsbL-0700_RLatLon0.03_PT041H.grib2 2026-04-29 18:20 1.7M
20260429T12Z_MSC_CAPS_SpecificHumidity_IsbL-0750_RLatLon0.03_PT041H.grib2 2026-04-29 18:20 1.4M
20260429T12Z_MSC_CAPS_SpecificHumidity_IsbL-0800_RLatLon0.03_PT041H.grib2 2026-04-29 18:20 1.5M
20260429T12Z_MSC_CAPS_SpecificHumidity_IsbL-0850_RLatLon0.03_PT041H.grib2 2026-04-29 18:20 1.6M
20260429T12Z_MSC_CAPS_SpecificHumidity_IsbL-0875_RLatLon0.03_PT041H.grib2 2026-04-29 18:20 1.7M
20260429T12Z_MSC_CAPS_SpecificHumidity_IsbL-0900_RLatLon0.03_PT041H.grib2 2026-04-29 18:20 1.8M
20260429T12Z_MSC_CAPS_SpecificHumidity_IsbL-0925_RLatLon0.03_PT041H.grib2 2026-04-29 18:20 1.9M
20260429T12Z_MSC_CAPS_SpecificHumidity_IsbL-0950_RLatLon0.03_PT041H.grib2 2026-04-29 18:20 2.0M
20260429T12Z_MSC_CAPS_SpecificHumidity_IsbL-0970_RLatLon0.03_PT041H.grib2 2026-04-29 18:20 2.0M
20260429T12Z_MSC_CAPS_SpecificHumidity_IsbL-0985_RLatLon0.03_PT041H.grib2 2026-04-29 18:20 2.1M
20260429T12Z_MSC_CAPS_SpecificHumidity_IsbL-1000_RLatLon0.03_PT041H.grib2 2026-04-29 18:20 2.1M
20260429T12Z_MSC_CAPS_SpecificHumidity_IsbL-1015_RLatLon0.03_PT041H.grib2 2026-04-29 18:20 2.1M
20260429T12Z_MSC_CAPS_SpecificHumidity_Sfc_RLatLon0.03_PT041H.grib2 2026-04-29 18:20 2.5M
20260429T12Z_MSC_CAPS_StormRelativeHelicity_Sfc_RLatLon0.03_PT041H.grib2 2026-04-29 18:20 3.1M
20260429T12Z_MSC_CAPS_Thickness_IsbL-1000to0500_RLatLon0.03_PT041H.grib2 2026-04-29 18:20 427K
20260429T12Z_MSC_CAPS_TotalCloudCover_Sfc_RLatLon0.03_PT041H.grib2 2026-04-29 18:20 3.7M
20260429T12Z_MSC_CAPS_TurboclineDepth_Sfc_RLatLon0.03_PT041H.nc 2026-04-29 18:12 16M
20260429T12Z_MSC_CAPS_UpwardLongwaveRadiationFlux_NTAtm_RLatLon0.03_PT041H.grib2 2026-04-29 18:20 2.9M
20260429T12Z_MSC_CAPS_UpwardShortwaveRadiationFlux_NTAtm_RLatLon0.03_PT041H.grib2 2026-04-29 18:20 1.7M
20260429T12Z_MSC_CAPS_VerticalVelocity_IsbL-0250_RLatLon0.03_PT041H.grib2 2026-04-29 18:20 1.1M
20260429T12Z_MSC_CAPS_VerticalVelocity_IsbL-0500_RLatLon0.03_PT041H.grib2 2026-04-29 18:20 1.0M
20260429T12Z_MSC_CAPS_VerticalVelocity_IsbL-0700_RLatLon0.03_PT041H.grib2 2026-04-29 18:20 954K
20260429T12Z_MSC_CAPS_VerticalVelocity_IsbL-0850_RLatLon0.03_PT041H.grib2 2026-04-29 18:20 1.1M
20260429T12Z_MSC_CAPS_VerticalVelocity_IsbL-1000_RLatLon0.03_PT041H.grib2 2026-04-29 18:20 1.1M
20260429T12Z_MSC_CAPS_WindDir_AGL-10m_RLatLon0.03_PT041H.grib2 2026-04-29 18:20 2.4M
20260429T12Z_MSC_CAPS_WindDir_AGL-120m_RLatLon0.03_PT041H.grib2 2026-04-29 18:20 1.2M
20260429T12Z_MSC_CAPS_WindDir_AGL-40m_RLatLon0.03_PT041H.grib2 2026-04-29 18:20 1.4M
20260429T12Z_MSC_CAPS_WindDir_AGL-80m_RLatLon0.03_PT041H.grib2 2026-04-29 18:20 1.3M
20260429T12Z_MSC_CAPS_WindDir_IsbL-0050_RLatLon0.03_PT041H.grib2 2026-04-29 18:20 1.0M
20260429T12Z_MSC_CAPS_WindDir_IsbL-0100_RLatLon0.03_PT041H.grib2 2026-04-29 18:20 1.1M
20260429T12Z_MSC_CAPS_WindDir_IsbL-0150_RLatLon0.03_PT041H.grib2 2026-04-29 18:20 1.0M
20260429T12Z_MSC_CAPS_WindDir_IsbL-0175_RLatLon0.03_PT041H.grib2 2026-04-29 18:20 1.0M
20260429T12Z_MSC_CAPS_WindDir_IsbL-0200_RLatLon0.03_PT041H.grib2 2026-04-29 18:20 1.0M
20260429T12Z_MSC_CAPS_WindDir_IsbL-0225_RLatLon0.03_PT041H.grib2 2026-04-29 18:20 1.1M
20260429T12Z_MSC_CAPS_WindDir_IsbL-0250_RLatLon0.03_PT041H.grib2 2026-04-29 18:20 1.1M
20260429T12Z_MSC_CAPS_WindDir_IsbL-0275_RLatLon0.03_PT041H.grib2 2026-04-29 18:20 1.1M
20260429T12Z_MSC_CAPS_WindDir_IsbL-0300_RLatLon0.03_PT041H.grib2 2026-04-29 18:20 1.1M
20260429T12Z_MSC_CAPS_WindDir_IsbL-0350_RLatLon0.03_PT041H.grib2 2026-04-29 18:20 1.1M
20260429T12Z_MSC_CAPS_WindDir_IsbL-0400_RLatLon0.03_PT041H.grib2 2026-04-29 18:20 1.1M
20260429T12Z_MSC_CAPS_WindDir_IsbL-0450_RLatLon0.03_PT041H.grib2 2026-04-29 18:20 1.1M
20260429T12Z_MSC_CAPS_WindDir_IsbL-0500_RLatLon0.03_PT041H.grib2 2026-04-29 18:20 1.2M
20260429T12Z_MSC_CAPS_WindDir_IsbL-0550_RLatLon0.03_PT041H.grib2 2026-04-29 18:20 1.2M
20260429T12Z_MSC_CAPS_WindDir_IsbL-0600_RLatLon0.03_PT041H.grib2 2026-04-29 18:20 1.3M
20260429T12Z_MSC_CAPS_WindDir_IsbL-0650_RLatLon0.03_PT041H.grib2 2026-04-29 18:20 1.3M
20260429T12Z_MSC_CAPS_WindDir_IsbL-0700_RLatLon0.03_PT041H.grib2 2026-04-29 18:20 1.4M
20260429T12Z_MSC_CAPS_WindDir_IsbL-0750_RLatLon0.03_PT041H.grib2 2026-04-29 18:20 1.5M
20260429T12Z_MSC_CAPS_WindDir_IsbL-0800_RLatLon0.03_PT041H.grib2 2026-04-29 18:20 1.6M
20260429T12Z_MSC_CAPS_WindDir_IsbL-0850_RLatLon0.03_PT041H.grib2 2026-04-29 18:20 1.7M
20260429T12Z_MSC_CAPS_WindDir_IsbL-0875_RLatLon0.03_PT041H.grib2 2026-04-29 18:20 1.8M
20260429T12Z_MSC_CAPS_WindDir_IsbL-0900_RLatLon0.03_PT041H.grib2 2026-04-29 18:20 1.9M
20260429T12Z_MSC_CAPS_WindDir_IsbL-0925_RLatLon0.03_PT041H.grib2 2026-04-29 18:20 2.0M
20260429T12Z_MSC_CAPS_WindDir_IsbL-0950_RLatLon0.03_PT041H.grib2 2026-04-29 18:20 2.1M
20260429T12Z_MSC_CAPS_WindDir_IsbL-0970_RLatLon0.03_PT041H.grib2 2026-04-29 18:20 2.1M
20260429T12Z_MSC_CAPS_WindDir_IsbL-0985_RLatLon0.03_PT041H.grib2 2026-04-29 18:20 2.2M
20260429T12Z_MSC_CAPS_WindDir_IsbL-1000_RLatLon0.03_PT041H.grib2 2026-04-29 18:20 2.3M
20260429T12Z_MSC_CAPS_WindDir_IsbL-1015_RLatLon0.03_PT041H.grib2 2026-04-29 18:20 2.4M
20260429T12Z_MSC_CAPS_WindGust-Max_AGL-10m_RLatLon0.03_PT041H.grib2 2026-04-29 18:20 2.5M
20260429T12Z_MSC_CAPS_WindGust-Min_AGL-10m_RLatLon0.03_PT041H.grib2 2026-04-29 18:20 2.3M
20260429T12Z_MSC_CAPS_WindGust_AGL-10m_RLatLon0.03_PT041H.grib2 2026-04-29 18:20 2.5M
20260429T12Z_MSC_CAPS_WindSpeed_AGL-10m_RLatLon0.03_PT041H.grib2 2026-04-29 18:20 2.1M
20260429T12Z_MSC_CAPS_WindSpeed_AGL-120m_RLatLon0.03_PT041H.grib2 2026-04-29 18:20 1.1M
20260429T12Z_MSC_CAPS_WindSpeed_AGL-40m_RLatLon0.03_PT041H.grib2 2026-04-29 18:20 1.2M
20260429T12Z_MSC_CAPS_WindSpeed_AGL-80m_RLatLon0.03_PT041H.grib2 2026-04-29 18:20 1.1M
20260429T12Z_MSC_CAPS_WindSpeed_IsbL-0050_RLatLon0.03_PT041H.grib2 2026-04-29 18:20 925K
20260429T12Z_MSC_CAPS_WindSpeed_IsbL-0100_RLatLon0.03_PT041H.grib2 2026-04-29 18:20 954K
20260429T12Z_MSC_CAPS_WindSpeed_IsbL-0150_RLatLon0.03_PT041H.grib2 2026-04-29 18:20 1.0M
20260429T12Z_MSC_CAPS_WindSpeed_IsbL-0175_RLatLon0.03_PT041H.grib2 2026-04-29 18:20 1.1M
20260429T12Z_MSC_CAPS_WindSpeed_IsbL-0200_RLatLon0.03_PT041H.grib2 2026-04-29 18:20 1.2M
20260429T12Z_MSC_CAPS_WindSpeed_IsbL-0225_RLatLon0.03_PT041H.grib2 2026-04-29 18:20 1.3M
20260429T12Z_MSC_CAPS_WindSpeed_IsbL-0250_RLatLon0.03_PT041H.grib2 2026-04-29 18:20 1.3M
20260429T12Z_MSC_CAPS_WindSpeed_IsbL-0275_RLatLon0.03_PT041H.grib2 2026-04-29 18:20 1.0M
20260429T12Z_MSC_CAPS_WindSpeed_IsbL-0300_RLatLon0.03_PT041H.grib2 2026-04-29 18:20 1.0M
20260429T12Z_MSC_CAPS_WindSpeed_IsbL-0350_RLatLon0.03_PT041H.grib2 2026-04-29 18:20 1.0M
20260429T12Z_MSC_CAPS_WindSpeed_IsbL-0400_RLatLon0.03_PT041H.grib2 2026-04-29 18:20 1.3M
20260429T12Z_MSC_CAPS_WindSpeed_IsbL-0450_RLatLon0.03_PT041H.grib2 2026-04-29 18:20 1.3M
20260429T12Z_MSC_CAPS_WindSpeed_IsbL-0500_RLatLon0.03_PT041H.grib2 2026-04-29 18:20 1.4M
20260429T12Z_MSC_CAPS_WindSpeed_IsbL-0550_RLatLon0.03_PT041H.grib2 2026-04-29 18:20 1.4M
20260429T12Z_MSC_CAPS_WindSpeed_IsbL-0600_RLatLon0.03_PT041H.grib2 2026-04-29 18:20 1.4M
20260429T12Z_MSC_CAPS_WindSpeed_IsbL-0650_RLatLon0.03_PT041H.grib2 2026-04-29 18:20 1.5M
20260429T12Z_MSC_CAPS_WindSpeed_IsbL-0700_RLatLon0.03_PT041H.grib2 2026-04-29 18:20 1.4M
20260429T12Z_MSC_CAPS_WindSpeed_IsbL-0750_RLatLon0.03_PT041H.grib2 2026-04-29 18:20 1.5M
20260429T12Z_MSC_CAPS_WindSpeed_IsbL-0800_RLatLon0.03_PT041H.grib2 2026-04-29 18:20 1.6M
20260429T12Z_MSC_CAPS_WindSpeed_IsbL-0850_RLatLon0.03_PT041H.grib2 2026-04-29 18:20 1.7M
20260429T12Z_MSC_CAPS_WindSpeed_IsbL-0875_RLatLon0.03_PT041H.grib2 2026-04-29 18:20 1.7M
20260429T12Z_MSC_CAPS_WindSpeed_IsbL-0900_RLatLon0.03_PT041H.grib2 2026-04-29 18:20 1.8M
20260429T12Z_MSC_CAPS_WindSpeed_IsbL-0925_RLatLon0.03_PT041H.grib2 2026-04-29 18:20 1.8M
20260429T12Z_MSC_CAPS_WindSpeed_IsbL-0950_RLatLon0.03_PT041H.grib2 2026-04-29 18:20 1.9M
20260429T12Z_MSC_CAPS_WindSpeed_IsbL-0970_RLatLon0.03_PT041H.grib2 2026-04-29 18:20 1.9M
20260429T12Z_MSC_CAPS_WindSpeed_IsbL-0985_RLatLon0.03_PT041H.grib2 2026-04-29 18:20 2.0M
20260429T12Z_MSC_CAPS_WindSpeed_IsbL-1000_RLatLon0.03_PT041H.grib2 2026-04-29 18:20 2.0M
20260429T12Z_MSC_CAPS_WindSpeed_IsbL-1015_RLatLon0.03_PT041H.grib2 2026-04-29 18:20 2.0M
20260429T12Z_MSC_CAPS_WindU_AGL-10m_RLatLon0.03_PT041H.grib2 2026-04-29 18:20 2.0M
20260429T12Z_MSC_CAPS_WindU_AGL-120m_RLatLon0.03_PT041H.grib2 2026-04-29 18:20 884K
20260429T12Z_MSC_CAPS_WindU_AGL-40m_RLatLon0.03_PT041H.grib2 2026-04-29 18:20 1.2M
20260429T12Z_MSC_CAPS_WindU_AGL-80m_RLatLon0.03_PT041H.grib2 2026-04-29 18:20 1.2M
20260429T12Z_MSC_CAPS_WindU_IsbL-0050_RLatLon0.03_PT041H.grib2 2026-04-29 18:20 753K
20260429T12Z_MSC_CAPS_WindU_IsbL-0100_RLatLon0.03_PT041H.grib2 2026-04-29 18:20 791K
20260429T12Z_MSC_CAPS_WindU_IsbL-0150_RLatLon0.03_PT041H.grib2 2026-04-29 18:20 848K
20260429T12Z_MSC_CAPS_WindU_IsbL-0175_RLatLon0.03_PT041H.grib2 2026-04-29 18:20 1.0M
20260429T12Z_MSC_CAPS_WindU_IsbL-0200_RLatLon0.03_PT041H.grib2 2026-04-29 18:20 741K
20260429T12Z_MSC_CAPS_WindU_IsbL-0225_RLatLon0.03_PT041H.grib2 2026-04-29 18:20 889K
20260429T12Z_MSC_CAPS_WindU_IsbL-0250_RLatLon0.03_PT041H.grib2 2026-04-29 18:20 909K
20260429T12Z_MSC_CAPS_WindU_IsbL-0275_RLatLon0.03_PT041H.grib2 2026-04-29 18:20 917K
20260429T12Z_MSC_CAPS_WindU_IsbL-0300_RLatLon0.03_PT041H.grib2 2026-04-29 18:20 921K
20260429T12Z_MSC_CAPS_WindU_IsbL-0350_RLatLon0.03_PT041H.grib2 2026-04-29 18:20 931K
20260429T12Z_MSC_CAPS_WindU_IsbL-0400_RLatLon0.03_PT041H.grib2 2026-04-29 18:20 937K
20260429T12Z_MSC_CAPS_WindU_IsbL-0450_RLatLon0.03_PT041H.grib2 2026-04-29 18:20 827K
20260429T12Z_MSC_CAPS_WindU_IsbL-0500_RLatLon0.03_PT041H.grib2 2026-04-29 18:20 867K
20260429T12Z_MSC_CAPS_WindU_IsbL-0550_RLatLon0.03_PT041H.grib2 2026-04-29 18:20 1.2M
20260429T12Z_MSC_CAPS_WindU_IsbL-0600_RLatLon0.03_PT041H.grib2 2026-04-29 18:20 1.2M
20260429T12Z_MSC_CAPS_WindU_IsbL-0650_RLatLon0.03_PT041H.grib2 2026-04-29 18:20 1.2M
20260429T12Z_MSC_CAPS_WindU_IsbL-0700_RLatLon0.03_PT041H.grib2 2026-04-29 18:20 1.3M
20260429T12Z_MSC_CAPS_WindU_IsbL-0750_RLatLon0.03_PT041H.grib2 2026-04-29 18:20 1.3M
20260429T12Z_MSC_CAPS_WindU_IsbL-0800_RLatLon0.03_PT041H.grib2 2026-04-29 18:20 1.1M
20260429T12Z_MSC_CAPS_WindU_IsbL-0850_RLatLon0.03_PT041H.grib2 2026-04-29 18:20 1.2M
20260429T12Z_MSC_CAPS_WindU_IsbL-0875_RLatLon0.03_PT041H.grib2 2026-04-29 18:20 1.2M
20260429T12Z_MSC_CAPS_WindU_IsbL-0900_RLatLon0.03_PT041H.grib2 2026-04-29 18:20 1.2M
20260429T12Z_MSC_CAPS_WindU_IsbL-0925_RLatLon0.03_PT041H.grib2 2026-04-29 18:20 1.3M
20260429T12Z_MSC_CAPS_WindU_IsbL-0950_RLatLon0.03_PT041H.grib2 2026-04-29 18:20 1.3M
20260429T12Z_MSC_CAPS_WindU_IsbL-0970_RLatLon0.03_PT041H.grib2 2026-04-29 18:20 1.7M
20260429T12Z_MSC_CAPS_WindU_IsbL-0985_RLatLon0.03_PT041H.grib2 2026-04-29 18:20 1.8M
20260429T12Z_MSC_CAPS_WindU_IsbL-1000_RLatLon0.03_PT041H.grib2 2026-04-29 18:20 1.8M
20260429T12Z_MSC_CAPS_WindU_IsbL-1015_RLatLon0.03_PT041H.grib2 2026-04-29 18:20 2.0M
20260429T12Z_MSC_CAPS_WindV_AGL-10m_RLatLon0.03_PT041H.grib2 2026-04-29 18:20 2.0M
20260429T12Z_MSC_CAPS_WindV_AGL-120m_RLatLon0.03_PT041H.grib2 2026-04-29 18:20 1.1M
20260429T12Z_MSC_CAPS_WindV_AGL-40m_RLatLon0.03_PT041H.grib2 2026-04-29 18:20 1.2M
20260429T12Z_MSC_CAPS_WindV_AGL-80m_RLatLon0.03_PT041H.grib2 2026-04-29 18:20 1.2M
20260429T12Z_MSC_CAPS_WindV_IsbL-0050_RLatLon0.03_PT041H.grib2 2026-04-29 18:20 932K
20260429T12Z_MSC_CAPS_WindV_IsbL-0100_RLatLon0.03_PT041H.grib2 2026-04-29 18:20 955K
20260429T12Z_MSC_CAPS_WindV_IsbL-0150_RLatLon0.03_PT041H.grib2 2026-04-29 18:20 914K
20260429T12Z_MSC_CAPS_WindV_IsbL-0175_RLatLon0.03_PT041H.grib2 2026-04-29 18:20 933K
20260429T12Z_MSC_CAPS_WindV_IsbL-0200_RLatLon0.03_PT041H.grib2 2026-04-29 18:20 736K
20260429T12Z_MSC_CAPS_WindV_IsbL-0225_RLatLon0.03_PT041H.grib2 2026-04-29 18:20 883K
20260429T12Z_MSC_CAPS_WindV_IsbL-0250_RLatLon0.03_PT041H.grib2 2026-04-29 18:20 906K
20260429T12Z_MSC_CAPS_WindV_IsbL-0275_RLatLon0.03_PT041H.grib2 2026-04-29 18:20 914K
20260429T12Z_MSC_CAPS_WindV_IsbL-0300_RLatLon0.03_PT041H.grib2 2026-04-29 18:20 920K
20260429T12Z_MSC_CAPS_WindV_IsbL-0350_RLatLon0.03_PT041H.grib2 2026-04-29 18:20 931K
20260429T12Z_MSC_CAPS_WindV_IsbL-0400_RLatLon0.03_PT041H.grib2 2026-04-29 18:20 938K
20260429T12Z_MSC_CAPS_WindV_IsbL-0450_RLatLon0.03_PT041H.grib2 2026-04-29 18:20 953K
20260429T12Z_MSC_CAPS_WindV_IsbL-0500_RLatLon0.03_PT041H.grib2 2026-04-29 18:20 1.0M
20260429T12Z_MSC_CAPS_WindV_IsbL-0550_RLatLon0.03_PT041H.grib2 2026-04-29 18:20 908K
20260429T12Z_MSC_CAPS_WindV_IsbL-0600_RLatLon0.03_PT041H.grib2 2026-04-29 18:20 940K
20260429T12Z_MSC_CAPS_WindV_IsbL-0650_RLatLon0.03_PT041H.grib2 2026-04-29 18:20 1.0M
20260429T12Z_MSC_CAPS_WindV_IsbL-0700_RLatLon0.03_PT041H.grib2 2026-04-29 18:20 1.3M
20260429T12Z_MSC_CAPS_WindV_IsbL-0750_RLatLon0.03_PT041H.grib2 2026-04-29 18:20 1.3M
20260429T12Z_MSC_CAPS_WindV_IsbL-0800_RLatLon0.03_PT041H.grib2 2026-04-29 18:20 1.1M
20260429T12Z_MSC_CAPS_WindV_IsbL-0850_RLatLon0.03_PT041H.grib2 2026-04-29 18:20 1.2M
20260429T12Z_MSC_CAPS_WindV_IsbL-0875_RLatLon0.03_PT041H.grib2 2026-04-29 18:20 1.2M
20260429T12Z_MSC_CAPS_WindV_IsbL-0900_RLatLon0.03_PT041H.grib2 2026-04-29 18:20 1.2M
20260429T12Z_MSC_CAPS_WindV_IsbL-0925_RLatLon0.03_PT041H.grib2 2026-04-29 18:20 1.3M
20260429T12Z_MSC_CAPS_WindV_IsbL-0950_RLatLon0.03_PT041H.grib2 2026-04-29 18:20 1.7M
20260429T12Z_MSC_CAPS_WindV_IsbL-0970_RLatLon0.03_PT041H.grib2 2026-04-29 18:20 1.7M
20260429T12Z_MSC_CAPS_WindV_IsbL-0985_RLatLon0.03_PT041H.grib2 2026-04-29 18:20 1.7M
20260429T12Z_MSC_CAPS_WindV_IsbL-1000_RLatLon0.03_PT041H.grib2 2026-04-29 18:20 1.9M
20260429T12Z_MSC_CAPS_WindV_IsbL-1015_RLatLon0.03_PT041H.grib2 2026-04-29 18:20 2.0M